TAUSAT-1 (47926 NORAD) Tracking and Keplerian Element Data

This shows tracking and keplerian element data for the satellite.

Feedback or suggestion? Click here.




ElementValue
Catalog47926
NameTAUSAT-1
Epoch Orbit6490
Epoch Day123.94020726
Epoch Year2022
RAAN160.1616
Inclination51.5963
Eccentricity0.0005913
Argument of Perigee352.327
Mean Anonmoly7.7661
Mean Motion16.30011657
Decay Rate0.05013963
L11 47926U 98067SC 22123.94020726 .05013963 12182-4 10618-2 0 9991
L22 47926 51.5963 160.1616 0005913 352.3270 7.7661 16.30011657 64906



Live tracking and technical data element details for TAUSAT-1 (NORAD 47926). TAUSAT-1 can be tracked NOW for your location showing map with azimuth and elevation plus other details from your city location.







IsCatalogInMostPopularTable: catalog: 47926, numindb: 165
Update: records affected: 1



GetName: 47926 TAUSAT-1

Hit Count: updated at: Thu, 23 Jan 2025 17:02:35 GMT